Time,TemperatureF,DewpointF,PressureIn,WindDirection,WindDirectionDegrees,WindSpeedMPH,WindSpeedGustMPH,Humidity,HourlyPrecipIn,Conditions,Clouds,dailyrainin,SolarRadiationWatts/m^2,SoftwareType,DateUTC
2013-05-28 00:03:00,66.0,62.0,-100.00,NE,35,1.0,-999.0,88,0.00,,,-99.99,0.000000,,2013-05-28 04:03:00,
2013-05-28 00:13:00,66.0,62.0,-100.00,NE,35,1.0,-999.0,88,0.00,,,-99.99,0.000000,,2013-05-28 04:13:00,
2013-05-28 00:22:00,66.0,62.0,-100.00,NNE,22,1.0,-999.0,88,0.00,,,-99.99,0.000000,,2013-05-28 04:22:00,
2013-05-28 00:33:00,65.0,62.0,-100.00,NE,47,1.0,-999.0,89,0.00,,,-99.99,0.000000,,2013-05-28 04:33:00,
2013-05-28 00:43:00,65.0,62.0,-100.00,NE,55,0.0,-999.0,90,0.00,,,-99.99,0.000000,,2013-05-28 04:43:00,
2013-05-28 00:53:00,65.0,62.0,-100.00,NE,55,0.0,-999.0,90,0.00,,,-99.99,0.000000,,2013-05-28 04:53:00,
2013-05-28 01:02:00,65.0,62.0,-100.00,NE,50,1.0,-999.0,91,0.00,,,-99.99,0.000000,,2013-05-28 05:02:00,
2013-05-28 01:12:00,64.0,62.0,-100.00,NE,52,0.0,-999.0,91,0.00,,,-99.99,0.000000,,2013-05-28 05:12:00,
2013-05-28 01:22:00,64.0,62.0,-100.00,NE,52,0.0,-999.0,91,0.00,,,-99.99,0.000000,,2013-05-28 05:22:00,
2013-05-28 01:33:00,64.0,62.0,-100.00,East,84,1.0,-999.0,92,0.00,,,-99.99,0.000000,,2013-05-28 05:33:00,
2013-05-28 01:42:00,64.0,62.0,-100.00,NE,45,1.0,-999.0,92,0.00,,,-99.99,0.000000,,2013-05-28 05:42:00,
2013-05-28 01:52:00,64.0,62.0,-100.00,NE,45,1.0,-999.0,92,0.00,,,-99.99,0.000000,,2013-05-28 05:52:00,
2013-05-28 02:02:00,64.0,62.0,-100.00,NE,36,1.0,-999.0,93,0.00,,,-99.99,0.000000,,2013-05-28 06:02:00,
2013-05-28 02:12:00,64.0,62.0,-100.00,NE,41,0.0,-999.0,93,0.00,,,-99.99,0.000000,,2013-05-28 06:12:00,
2013-05-28 02:22:00,64.0,62.0,-100.00,NE,41,0.0,-999.0,93,0.00,,,-99.99,0.000000,,2013-05-28 06:22:00,
2013-05-28 02:32:00,64.0,62.0,-100.00,NE,44,1.0,-999.0,93,0.00,,,-99.99,0.000000,,2013-05-28 06:32:00,
2013-05-28 02:42:00,64.0,62.0,-100.00,NE,44,1.0,-999.0,93,0.00,,,-99.99,0.000000,,2013-05-28 06:42:00,
2013-05-28 02:52:00,63.0,62.0,-100.00,NE,38,1.0,-999.0,93,0.00,,,-99.99,0.000000,,2013-05-28 06:52:00,
2013-05-28 03:01:00,63.0,61.0,-100.00,NW,323,1.0,-999.0,94,0.00,,,-99.99,0.000000,,2013-05-28 07:01:00,
2013-05-28 03:11:00,63.0,61.0,-100.00,North,357,1.0,-999.0,94,0.00,,,-99.99,0.000000,,2013-05-28 07:11:00,
2013-05-28 03:22:00,63.0,61.0,-100.00,North,357,1.0,-999.0,94,0.00,,,-99.99,0.000000,,2013-05-28 07:22:00,
2013-05-28 03:32:00,63.0,61.0,-100.00,North,357,1.0,-999.0,94,0.00,,,-99.99,0.000000,,2013-05-28 07:32:00,
2013-05-28 03:42:00,62.0,61.0,-100.00,NE,42,1.0,-999.0,94,0.00,,,-99.99,0.000000,,2013-05-28 07:42:00,
2013-05-28 03:52:00,63.0,61.0,-100.00,NE,54,2.0,-999.0,94,0.00,,,-99.99,0.000000,,2013-05-28 07:52:00,
2013-05-28 04:02:00,63.0,62.0,-100.00,NE,52,1.0,-999.0,94,0.00,,,-99.99,0.000000,,2013-05-28 08:02:00,
2013-05-28 04:12:00,63.0,61.0,-100.00,NNE,19,1.0,-999.0,95,0.00,,,-99.99,0.000000,,2013-05-28 08:12:00,
2013-05-28 04:22:00,63.0,61.0,-100.00,NNE,19,1.0,-999.0,95,0.00,,,-99.99,0.000000,,2013-05-28 08:22:00,
2013-05-28 04:32:00,63.0,61.0,-100.00,NNE,27,1.0,-999.0,95,0.00,,,-99.99,0.000000,,2013-05-28 08:32:00,
2013-05-28 04:42:00,62.0,61.0,-100.00,North,3,1.0,-999.0,95,0.00,,,-99.99,0.000000,,2013-05-28 08:42:00,
2013-05-28 04:52:00,62.0,61.0,-100.00,North,3,1.0,-999.0,95,0.00,,,-99.99,0.000000,,2013-05-28 08:52:00,
2013-05-28 05:01:00,62.0,61.0,-100.00,NE,42,1.0,-999.0,95,0.00,,,-99.99,0.000000,,2013-05-28 09:01:00,
2013-05-28 05:11:00,62.0,61.0,-100.00,NE,42,1.0,-999.0,95,0.00,,,-99.99,0.000000,,2013-05-28 09:11:00,
2013-05-28 05:21:00,62.0,61.0,-100.00,East,82,1.0,-999.0,95,0.00,,,-99.99,0.000000,,2013-05-28 09:21:00,
2013-05-28 05:33:00,62.0,61.0,-100.00,East,82,1.0,-999.0,95,0.00,,,-99.99,0.000000,,2013-05-28 09:33:00,
2013-05-28 05:43:00,62.0,61.0,-100.00,NE,55,1.0,-999.0,95,0.00,,,-99.99,0.000000,,2013-05-28 09:43:00,
2013-05-28 05:54:00,62.0,61.0,-100.00,NE,55,1.0,-999.0,95,0.00,,,-99.99,0.000000,,2013-05-28 09:54:00,
2013-05-28 06:03:00,63.0,61.0,-100.00,NE,46,1.0,-999.0,96,0.00,,,-99.99,0.000000,,2013-05-28 10:03:00,
2013-05-28 06:12:00,63.0,62.0,-100.00,ENE,61,2.0,-999.0,96,0.00,,,-99.99,0.000000,,2013-05-28 10:12:00,
2013-05-28 06:23:00,63.0,62.0,-100.00,ENE,61,2.0,-999.0,96,0.00,,,-99.99,0.000000,,2013-05-28 10:23:00,
2013-05-28 06:32:00,62.0,61.0,-100.00,NE,46,1.0,-999.0,96,0.00,,,-99.99,0.200000,,2013-05-28 10:32:00,
2013-05-28 06:42:00,62.0,61.0,-100.00,NE,41,1.0,-999.0,96,0.00,,,-99.99,2.400000,,2013-05-28 10:42:00,
2013-05-28 06:53:00,62.0,61.0,-100.00,NE,41,1.0,-999.0,96,0.00,,,-99.99,2.400000,,2013-05-28 10:53:00,
2013-05-28 07:02:00,62.0,61.0,-100.00,NNE,28,1.0,-999.0,96,0.00,,,-99.99,7.400000,,2013-05-28 11:02:00,
2013-05-28 07:11:00,62.0,61.0,-100.00,NNW,348,0.0,-999.0,96,0.00,,,-99.99,18.299999,,2013-05-28 11:11:00,
2013-05-28 07:22:00,62.0,61.0,-100.00,NNW,348,0.0,-999.0,96,0.00,,,-99.99,18.299999,,2013-05-28 11:22:00,
2013-05-28 07:32:00,63.0,62.0,-100.00,East,89,0.0,-999.0,96,0.00,,,-99.99,36.599998,,2013-05-28 11:32:00,
2013-05-28 07:42:00,63.0,62.0,-100.00,NNE,24,0.0,-999.0,96,0.00,,,-99.99,76.199997,,2013-05-28 11:42:00,
2013-05-28 07:52:00,63.0,62.0,-100.00,NNE,24,0.0,-999.0,96,0.00,,,-99.99,76.199997,,2013-05-28 11:52:00,
2013-05-28 08:01:00,66.0,64.0,-100.00,North,9,1.0,-999.0,96,0.00,,,-99.99,175.300003,,2013-05-28 12:01:00,
2013-05-28 08:11:00,68.0,66.0,-100.00,NE,41,1.0,-999.0,94,0.00,,,-99.99,213.100006,,2013-05-28 12:11:00,
2013-05-28 08:21:00,68.0,66.0,-100.00,NE,41,1.0,-999.0,94,0.00,,,-99.99,213.100006,,2013-05-28 12:21:00,
2013-05-28 08:32:00,68.0,66.0,-100.00,NE,41,1.0,-999.0,94,0.00,,,-99.99,213.100006,,2013-05-28 12:32:00,
2013-05-28 08:42:00,72.0,69.0,-100.00,ESE,107,1.0,-999.0,91,0.00,,,-99.99,305.200012,,2013-05-28 12:42:00,
2013-05-28 08:52:00,72.0,69.0,-100.00,ESE,107,1.0,-999.0,91,0.00,,,-99.99,305.200012,,2013-05-28 12:52:00,
2013-05-28 09:01:00,74.0,69.0,-100.00,East,85,2.0,-999.0,85,0.00,,,-99.99,369.600006,,2013-05-28 13:01:00,
2013-05-28 09:11:00,77.0,69.0,-100.00,East,81,2.0,-999.0,77,0.00,,,-99.99,414.299988,,2013-05-28 13:11:00,
2013-05-28 09:21:00,77.0,69.0,-100.00,East,81,2.0,-999.0,77,0.00,,,-99.99,414.299988,,2013-05-28 13:21:00,
2013-05-28 09:32:00,77.0,69.0,-100.00,East,85,4.0,-999.0,74,0.00,,,-99.99,465.299988,,2013-05-28 13:32:00,
2013-05-28 09:42:00,78.0,69.0,-100.00,ESE,105,3.0,-999.0,74,0.00,,,-99.99,418.500000,,2013-05-28 13:42:00,
2013-05-28 09:52:00,78.0,69.0,-100.00,ESE,105,3.0,-999.0,74,0.00,,,-99.99,418.500000,,2013-05-28 13:52:00,
2013-05-28 10:02:00,79.0,69.0,-100.00,ESE,107,5.0,-999.0,71,0.00,,,-99.99,533.200012,,2013-05-28 14:02:00,
2013-05-28 10:11:00,80.0,69.0,-100.00,ESE,108,3.0,-999.0,70,0.00,,,-99.99,474.600006,,2013-05-28 14:11:00,
2013-05-28 10:21:00,80.0,69.0,-100.00,ESE,108,3.0,-999.0,70,0.00,,,-99.99,474.600006,,2013-05-28 14:21:00,
2013-05-28 10:32:00,79.0,69.0,-100.00,East,87,5.0,-999.0,70,0.00,,,-99.99,453.600006,,2013-05-28 14:32:00,
2013-05-28 10:42:00,80.0,69.0,-100.00,East,86,4.0,-999.0,69,0.00,,,-99.99,562.299988,,2013-05-28 14:42:00,
2013-05-28 10:52:00,80.0,69.0,-100.00,East,86,4.0,-999.0,69,0.00,,,-99.99,562.299988,,2013-05-28 14:52:00,
2013-05-28 11:01:00,80.0,69.0,-100.00,East,100,4.0,-999.0,68,0.00,,,-99.99,541.500000,,2013-05-28 15:01:00,
2013-05-28 11:11:00,80.0,69.0,-100.00,East,100,4.0,-999.0,68,0.00,,,-99.99,541.500000,,2013-05-28 15:11:00,
2013-05-28 11:21:00,81.0,69.0,-100.00,East,92,4.0,-999.0,67,0.00,,,-99.99,580.500000,,2013-05-28 15:21:00,
2013-05-28 11:33:00,80.0,69.0,-100.00,East,101,4.0,-999.0,68,0.00,,,-99.99,331.100006,,2013-05-28 15:33:00,
2013-05-28 11:43:00,80.0,69.0,-100.00,East,83,4.0,-999.0,69,0.00,,,-99.99,288.799988,,2013-05-28 15:43:00,
2013-05-28 11:53:00,80.0,69.0,-100.00,East,83,4.0,-999.0,69,0.00,,,-99.99,288.799988,,2013-05-28 15:53:00,
2013-05-28 12:03:00,81.0,69.0,-100.00,East,83,5.0,-999.0,67,0.00,,,-99.99,550.500000,,2013-05-28 16:03:00,
2013-05-28 12:13:00,81.0,69.0,-100.00,East,86,4.0,-999.0,67,0.00,,,-99.99,716.000000,,2013-05-28 16:13:00,
2013-05-28 12:22:00,81.0,69.0,-100.00,East,86,4.0,-999.0,67,0.00,,,-99.99,716.000000,,2013-05-28 16:22:00,
2013-05-28 12:33:00,82.0,70.0,-100.00,East,85,4.0,-999.0,66,0.00,,,-99.99,617.700012,,2013-05-28 16:33:00,
2013-05-28 12:42:00,82.0,70.0,-100.00,East,85,4.0,-999.0,66,0.00,,,-99.99,617.700012,,2013-05-28 16:42:00,
2013-05-28 12:52:00,83.0,69.0,-100.00,East,90,5.0,-999.0,63,0.00,,,-99.99,707.000000,,2013-05-28 16:52:00,
2013-05-28 13:02:00,82.0,69.0,-100.00,ESE,117,3.0,-999.0,64,0.00,,,-99.99,489.399994,,2013-05-28 17:02:00,
2013-05-28 13:12:00,84.0,69.0,-100.00,ESE,108,3.0,-999.0,61,0.00,,,-99.99,625.500000,,2013-05-28 17:12:00,
2013-05-28 13:22:00,84.0,69.0,-100.00,ESE,108,3.0,-999.0,61,0.00,,,-99.99,625.500000,,2013-05-28 17:22:00,
2013-05-28 13:32:00,84.0,69.0,-100.00,ESE,119,3.0,-999.0,60,0.00,,,-99.99,517.299988,,2013-05-28 17:32:00,
2013-05-28 13:42:00,84.0,69.0,-100.00,SE,136,3.0,-999.0,59,0.00,,,-99.99,534.400024,,2013-05-28 17:42:00,
2013-05-28 13:52:00,84.0,69.0,-100.00,SE,136,3.0,-999.0,59,0.00,,,-99.99,534.400024,,2013-05-28 17:52:00,
2013-05-28 14:01:00,84.0,69.0,-100.00,East,92,5.0,-999.0,60,0.00,,,-99.99,821.000000,,2013-05-28 18:01:00,
2013-05-28 14:11:00,85.0,69.0,-100.00,ESE,105,4.0,-999.0,59,0.00,,,-99.99,884.000000,,2013-05-28 18:11:00,
2013-05-28 14:21:00,85.0,69.0,-100.00,ESE,105,4.0,-999.0,59,0.00,,,-99.99,884.000000,,2013-05-28 18:21:00,
2013-05-28 14:32:00,85.0,69.0,-100.00,ESE,105,4.0,-999.0,59,0.00,,,-99.99,884.000000,,2013-05-28 18:32:00,
2013-05-28 14:42:00,84.0,69.0,-100.00,East,92,4.0,-999.0,59,0.00,,,-99.99,582.799988,,2013-05-28 18:42:00,
2013-05-28 14:52:00,85.0,69.0,-100.00,East,89,5.0,-999.0,57,0.00,,,-99.99,898.000000,,2013-05-28 18:52:00,
2013-05-28 15:01:00,85.0,68.0,-100.00,East,82,5.0,-999.0,58,0.00,,,-99.99,627.400024,,2013-05-28 19:01:00,
2013-05-28 15:11:00,85.0,68.0,-100.00,East,98,5.0,-999.0,57,0.00,,,-99.99,653.299988,,2013-05-28 19:11:00,
2013-05-28 15:21:00,85.0,68.0,-100.00,East,98,5.0,-999.0,57,0.00,,,-99.99,653.299988,,2013-05-28 19:21:00,
2013-05-28 15:32:00,85.0,69.0,-100.00,East,85,4.0,-999.0,58,0.00,,,-99.99,681.099976,,2013-05-28 19:32:00,
2013-05-28 15:42:00,85.0,69.0,-100.00,East,95,5.0,-999.0,59,0.00,,,-99.99,599.299988,,2013-05-28 19:42:00,
2013-05-28 15:52:00,85.0,69.0,-100.00,East,95,5.0,-999.0,59,0.00,,,-99.99,599.299988,,2013-05-28 19:52:00,
2013-05-28 16:02:00,85.0,68.0,-100.00,East,79,6.0,-999.0,57,0.00,,,-99.99,800.000000,,2013-05-28 20:02:00,
2013-05-28 16:11:00,85.0,68.0,-100.00,East,79,6.0,-999.0,57,0.00,,,-99.99,800.000000,,2013-05-28 20:11:00,
2013-05-28 16:22:00,85.0,69.0,-100.00,East,91,5.0,-999.0,57,0.00,,,-99.99,692.400024,,2013-05-28 20:22:00,
2013-05-28 16:32:00,85.0,69.0,-100.00,East,90,4.0,-999.0,59,0.00,,,-99.99,639.200012,,2013-05-28 20:32:00,
2013-05-28 16:42:00,84.0,69.0,-100.00,ESE,103,4.0,-999.0,60,0.00,,,-99.99,456.600006,,2013-05-28 20:42:00,
2013-05-28 16:52:00,84.0,69.0,-100.00,ESE,103,4.0,-999.0,60,0.00,,,-99.99,456.600006,,2013-05-28 20:52:00,
2013-05-28 17:02:00,84.0,69.0,-100.00,East,99,5.0,-999.0,60,0.00,,,-99.99,381.600006,,2013-05-28 21:02:00,
2013-05-28 17:11:00,84.0,69.0,-100.00,East,90,5.0,-999.0,60,0.00,,,-99.99,612.799988,,2013-05-28 21:11:00,
2013-05-28 17:21:00,84.0,69.0,-100.00,East,90,5.0,-999.0,60,0.00,,,-99.99,612.799988,,2013-05-28 21:21:00,
2013-05-28 17:33:00,84.0,68.0,-100.00,East,93,6.0,-999.0,60,0.00,,,-99.99,507.000000,,2013-05-28 21:33:00,
2013-05-28 17:43:00,84.0,69.0,-100.00,ESE,103,4.0,-999.0,60,0.00,,,-99.99,507.100006,,2013-05-28 21:43:00,
2013-05-28 17:53:00,84.0,69.0,-100.00,ESE,103,4.0,-999.0,60,0.00,,,-99.99,507.100006,,2013-05-28 21:53:00,
2013-05-28 18:02:00,84.0,69.0,-100.00,ESE,104,4.0,-999.0,60,0.00,,,-99.99,442.700012,,2013-05-28 22:02:00,
2013-05-28 18:13:00,83.0,68.0,-100.00,East,93,6.0,-999.0,61,0.00,,,-99.99,413.399994,,2013-05-28 22:13:00,
2013-05-28 18:22:00,83.0,68.0,-100.00,East,93,6.0,-999.0,61,0.00,,,-99.99,413.399994,,2013-05-28 22:22:00,
2013-05-28 18:33:00,82.0,68.0,-100.00,East,97,5.0,-999.0,60,0.00,,,-99.99,366.000000,,2013-05-28 22:33:00,
2013-05-28 18:42:00,82.0,67.0,-100.00,East,90,5.0,-999.0,60,0.00,,,-99.99,312.399994,,2013-05-28 22:42:00,
2013-05-28 18:52:00,82.0,67.0,-100.00,East,90,5.0,-999.0,60,0.00,,,-99.99,312.399994,,2013-05-28 22:52:00,
2013-05-28 19:02:00,82.0,67.0,-100.00,East,93,6.0,-999.0,61,0.00,,,-99.99,263.700012,,2013-05-28 23:02:00,
2013-05-28 19:11:00,81.0,68.0,-100.00,East,90,5.0,-999.0,63,0.00,,,-99.99,221.100006,,2013-05-28 23:11:00,
2013-05-28 19:22:00,81.0,68.0,-100.00,East,90,5.0,-999.0,63,0.00,,,-99.99,221.100006,,2013-05-28 23:22:00,
2013-05-28 19:32:00,80.0,68.0,-100.00,ESE,112,4.0,-999.0,65,0.00,,,-99.99,143.199997,,2013-05-28 23:32:00,
2013-05-28 19:42:00,80.0,68.0,-100.00,East,99,3.0,-999.0,67,0.00,,,-99.99,48.500000,,2013-05-28 23:42:00,
2013-05-28 19:52:00,80.0,68.0,-100.00,East,99,3.0,-999.0,67,0.00,,,-99.99,48.500000,,2013-05-28 23:52:00,
2013-05-28 20:02:00,79.0,68.0,-100.00,East,101,5.0,-999.0,69,0.00,,,-99.99,32.099998,,2013-05-29 00:02:00,
2013-05-28 20:11:00,78.0,68.0,-100.00,East,96,4.0,-999.0,71,0.00,,,-99.99,19.700001,,2013-05-29 00:11:00,
2013-05-28 20:21:00,78.0,68.0,-100.00,East,96,4.0,-999.0,71,0.00,,,-99.99,19.700001,,2013-05-29 00:21:00,
2013-05-28 20:32:00,78.0,69.0,-100.00,East,96,3.0,-999.0,73,0.00,,,-99.99,8.800000,,2013-05-29 00:32:00,
2013-05-28 20:42:00,77.0,69.0,-100.00,East,93,4.0,-999.0,75,0.00,,,-99.99,2.400000,,2013-05-29 00:42:00,
2013-05-28 20:52:00,77.0,69.0,-100.00,East,93,4.0,-999.0,75,0.00,,,-99.99,2.400000,,2013-05-29 00:52:00,
2013-05-28 21:01:00,76.0,69.0,-100.00,East,89,3.0,-999.0,76,0.00,,,-99.99,0.200000,,2013-05-29 01:01:00,
2013-05-28 21:11:00,76.0,69.0,-100.00,East,96,3.0,-999.0,78,0.00,,,-99.99,0.000000,,2013-05-29 01:11:00,
2013-05-28 21:22:00,76.0,69.0,-100.00,East,96,3.0,-999.0,78,0.00,,,-99.99,0.000000,,2013-05-29 01:22:00,
2013-05-28 21:32:00,75.0,69.0,-100.00,ESE,104,2.0,-999.0,80,0.00,,,-99.99,0.000000,,2013-05-29 01:32:00,
2013-05-28 21:42:00,75.0,69.0,-100.00,ESE,102,2.0,-999.0,81,0.00,,,-99.99,0.000000,,2013-05-29 01:42:00,
2013-05-28 21:52:00,75.0,69.0,-100.00,ESE,102,2.0,-999.0,81,0.00,,,-99.99,0.000000,,2013-05-29 01:52:00,
2013-05-28 22:02:00,75.0,69.0,-100.00,East,96,2.0,-999.0,82,0.00,,,-99.99,0.000000,,2013-05-29 02:02:00,
2013-05-28 22:12:00,74.0,69.0,-100.00,East,89,2.0,-999.0,83,0.00,,,-99.99,0.000000,,2013-05-29 02:12:00,
2013-05-28 22:21:00,74.0,69.0,-100.00,East,89,2.0,-999.0,83,0.00,,,-99.99,0.000000,,2013-05-29 02:21:00,
2013-05-28 22:32:00,74.0,69.0,-100.00,East,93,2.0,-999.0,84,0.00,,,-99.99,0.000000,,2013-05-29 02:32:00,
2013-05-28 22:42:00,73.0,69.0,-100.00,ESE,118,1.0,-999.0,85,0.00,,,-99.99,0.000000,,2013-05-29 02:42:00,
2013-05-28 22:52:00,73.0,69.0,-100.00,ESE,118,1.0,-999.0,85,0.00,,,-99.99,0.000000,,2013-05-29 02:52:00,
2013-05-28 23:02:00,73.0,69.0,-100.00,ESE,105,1.0,-999.0,86,0.00,,,-99.99,0.000000,,2013-05-29 03:02:00,
2013-05-28 23:12:00,73.0,69.0,-100.00,ESE,112,1.0,-999.0,87,0.00,,,-99.99,0.000000,,2013-05-29 03:12:00,
2013-05-28 23:21:00,73.0,69.0,-100.00,ESE,112,1.0,-999.0,87,0.00,,,-99.99,0.000000,,2013-05-29 03:21:00,
2013-05-28 23:33:00,73.0,69.0,-100.00,ESE,112,1.0,-999.0,87,0.00,,,-99.99,0.000000,,2013-05-29 03:33:00,
2013-05-28 23:43:00,72.0,68.0,-100.00,East,93,1.0,-999.0,89,0.00,,,-99.99,0.000000,,2013-05-29 03:43:00,
2013-05-28 23:53:00,72.0,68.0,-100.00,East,93,1.0,-999.0,89,0.00,,,-99.99,0.000000,,2013-05-29 03:53:00,